TJS-3

导读

TJS-3是中国于北京时间2018年12月24日08:00发射的通信技术试验卫星,官方披露其主要用于开展多波段高速卫星通信技术验证,卫星制造中通过使用镁锂合金材料减重超170千克,提升了有效载荷能力。该卫星具备轨道机动能力,因多次出现变轨接近美国卫星的情况被外媒持续关注,西方猜测其承担太空监测、信号情报收集等任务,但此类说法多为恶意炒作。

基本信息
目录编号:
43874
目录名称:
TJS-3
国际标识:
2018-110A
轨道中心:
EARTH
卫星名称:
TJS-3
卫星全名:
--
卫星状态:
在轨 (已飞行2821 天)
发射日期:
2018-12-24 UTC
国别 :
中国 (CN)
星等 :
--
该卫星已列入 空间交会检测服务 Space Conjunction Data Service (SCDS) ,当前飞行风险评估等级: 无高风险
轨道信息
数据来源 国际轨道数据 AOE轨道数据
星历时间 2026-09-14T02:30:52+0800
6小时前
查看轨道信息
2026-09-09T23:00:00+0800
4天前
查看轨道信息
半长轴 42114.147km 42114.399km
偏心率 0.0003955 0.000393
轨道倾角 2.767° 2.756°
近地点辐角 137.076° 137.176°
升交点赤经 79.344° 79.400°
平近点角 220.917° 161.265°
近地点 35719.353km 35719.711km
远地点 35752.667km 35752.813km
周期 1433.513分钟 1433.526分钟
每日圈数 1.004525 1.004516
详细信息
使用方式:
暂无
2D轨道图
3D轨道图
轨道高度分析图
轨道倾角分析图
轨道综合分析图
查看轨道综合分析图
与全量物体交会距离演化趋势
与全量物体交会风险概率演化趋势